Location: Brachbach
(49.1847°N, 9.7240°E)
Time: 06:45:30
(UTC+00:00)

FO-29 - Pass Details

Date: 17 March 2026
Orbit: 801 x 1320 km, 98.5° (Epoch: 17 April)

Event Time Altitude Azimuth Distance (km) Brightness Sun altitude
Rises 20:56:21 0° 11° (N) 4,106 13.2 -31.8°
Reaches altitude 10° 20:59:00 10° 6° (N) 3,197 12.6 -32.1°
Maximum altitude 21:06:03 47° 296° (WNW) 1,656 10.9 -33.0°
Drops below altitude 10° 21:13:27 10° 226° (SW) 3,343 12.2 -33.8°
Sets 21:16:17 0° 221° (SW) 4,309 12.8 -34.1°
